Location: Melbourne
(37.8666°S, 145.1333°E)
Time: 10:01:26
(UTC+10:00)

Iridium 21 - Visible Passes

Search period start: 21 September 2014 00:00
Search period end: 01 October 2014 00:00
Orbit: 776 x 779 km, 86.4° (Epoch: 20 September)

Date Brightness Start Highest point End Pass type
(mag) Time Alt. Az. Time Alt. Az. Time Alt. Az.
21 Sep 7.1 19:28:24 10° SSW 19:33:14 38° W 19:38:02 10° NNW visible
22 Sep 5.9 18:54:34 10° S 18:59:51 72° W 19:05:03 10° N visible
23 Sep 8.7 20:03:46 10° SW 20:06:24 14° WSW 20:09:01 10° WNW visible
24 Sep 8.9 05:38:15 10° ENE 05:40:51 14° ESE 05:43:29 10° SE visible
24 Sep 7.9 19:28:53 10° SSW 19:33:12 26° W 19:37:29 10° NW visible
25 Sep 6.7 18:54:48 10° SSW 18:59:52 49° W 19:04:53 10° NNW visible
27 Sep 8.7 05:36:58 10° NE 05:40:45 21° E 05:44:33 10° SE visible
27 Sep 8.6 19:29:38 10° SW 19:33:07 18° W 19:36:34 10° WNW visible
28 Sep 9.4 05:06:35 10° E 05:07:35 11° ESE 05:08:35 10° ESE visible
28 Sep 7.6 18:55:10 10° SSW 18:59:52 33° W 19:04:30 10° NNW visible
30 Sep 9.1 19:31:00 10° SW 19:32:59 12° WSW 19:34:57 10° W visible
